This is the latest recevied weather packets stored in our database for station/object N3TUQ-2. If no packets are shown the sender has not sent any weather packets the latest 10 day(s).
| Time | Temp. | Humidity | Pressure | Rain* | Wind** | Luminosity | Snow |
|---|---|---|---|---|---|---|---|
| 1788454311 | 27.22° C | 74% | 1014.3 hPa | 0 mm | - | - | - |
| 1788453531 | 27.22° C | 75% | 1014.5 hPa | 0 mm | - | - | - |
| 1788452751 | 26.67° C | 78% | 1013.9 hPa | 0 mm | - | - | - |
| 1788451971 | 26.11° C | 77% | 1014.1 hPa | 0 mm | - | - | - |
| 1788451191 | 25.56° C | 83% | 1014 hPa | 0 mm | - | - | - |
| 1788450411 | 25.56° C | 78% | 1014.2 hPa | 0 mm | - | - | - |
| 1788449631 | 25.56° C | 83% | 1014.3 hPa | 0 mm | - | - | - |
| 1788448851 | 25° C | 80% | 1014.5 hPa | 0 mm | - | - | - |
| 1788448071 | 24.44° C | 82% | 1014.6 hPa | 0 mm | - | - | - |
| 1788447291 | 24.44° C | 82% | 1014.7 hPa | 0 mm | - | - | - |
| 1788446511 | 23.89° C | 87% | 1014.3 hPa | 0 mm | - | - | - |
| 1788445731 | 22.78° C | 89% | 1014.2 hPa | 0 mm | - | - | - |
| 1788444951 | 21.67° C | 91% | 1014.2 hPa | 0 mm | - | - | - |
| 1788444171 | 21.67° C | 94% | 1014.5 hPa | 0 mm | - | - | - |
| 1788443391 | 20.56° C | 97% | 1014.5 hPa | 0 mm | - | - | - |
| 1788442611 | 20° C | 99% | 1014.8 hPa | 0 mm | - | - | - |
| 1788441831 | 19.44° C | 99% | 1015.2 hPa | 0 mm | - | - | - |
| 1788441057 | 18.89° C | 99% | 1015.5 hPa | 0 mm | - | - | - |
| 1788440271 | 18.89° C | 99% | 1015.8 hPa | 0 mm | - | - | - |
| 1788439491 | 18.33° C | 99% | 1015.5 hPa | 0 mm | - | - | - |
| 1788438711 | 18.33° C | 99% | 1015.6 hPa | 0 mm | - | - | - |
| 1788437945 | 18.33° C | 99% | 1015.4 hPa | 0 mm | - | - | - |
| 1788437151 | 18.33° C | 99% | 1015.2 hPa | 0 mm | - | - | - |
| 1788436370 | 18.33° C | 99% | 1015.1 hPa | 0 mm | - | - | - |
| 1788435590 | 18.33° C | 99% | 1015.1 hPa | 0 mm | - | - | - |
* Rain latest hour (hover to see other rain measurements)
** Current wind speed in m/s (hover to see current wind gust speed)